This demonstration page uses our WeatherBlox Daily Observations layout. Learn more.

38.89511, -77.03637

Hourly Observations for October 12, 2019

Temp ( °F °C ) Dew Point ( °F °C ) Humidity (%) Winds ( mph kmh ) Pressure ( in mb ) Visibility ( mi km ) Precip ( " mm )
12:52 am 00:52 Clear 61 16.1 51 10.6 70 70 E 3 6 30.04 1017 10 16.0934 0 0
1:52 am 01:52 Clear 59 15 51 10.6 75 75 Calm 30.04 1017 10 16.0934 0 0
2:52 am 02:52 Clear 58 14.4 51 10.6 78 78 Calm 30.03 1017 10 16.0934 0 0
3:52 am 03:52 Mostly Cloudy 56 13.3 51 10.6 84 84 NNW 3 6 30.01 1016 10 16.0934 0 0
4:52 am 04:52 Cloudy 57 13.9 52 11.1 83 83 NE 5 7 30.01 1016 10 16.0934 0 0
5:52 am 05:52 Cloudy 56 13.3 52 11.1 87 87 VRB 3 6 30.01 1016 10 16.0934 0 0
6:52 am 06:52 Mostly Cloudy 56 13.3 51 10.6 84 84 ENE 5 7 30.01 1016 9 14.48406 0 0
7:52 am 07:52 Partly Cloudy 57 13.9 51 10.6 81 81 ENE 3 6 30.01 1016 10 16.0934 0 0
8:52 am 08:52 Mostly Cloudy 59 15 50 10 72 72 Calm 30.02 1017 10 16.0934 0 0
9:52 am 09:52 Mostly Cloudy 61 16.1 53 11.7 75 75 Calm 30.01 1016 10 16.0934 0 0
10:52 am 10:52 Mostly Cloudy 64 17.8 52 11.1 65 65 S 8 13 30.01 1016 10 16.0934 0 0
11:52 am 11:52 Mostly Cloudy 68 20 52 11.1 57 57 S 8 13 30 1016 10 16.0934 0 0
12:52 pm 12:52 Mostly Cloudy 71 21.7 52 11.1 51 51 SSE 6 9 29.99 1016 10 16.0934 0 0
1:52 pm 13:52 Mostly Cloudy 72 22.2 50 10 46 46 SSE 7 11 29.96 1014 10 16.0934 0 0
2:52 pm 14:52 Cloudy 73 22.8 49 9.4 43 43 NW 6 9 29.96 1015 10 16.0934 0 0
3:52 pm 15:52 Cloudy 73 22.8 49 9.4 43 43 NNW 13 20 29.98 1015 10 16.0934 0 0
4:52 pm 16:52 Cloudy 71 21.7 50 10 47 47 NNW 7 11 29.97 1015 10 16.0934 0 0
5:52 pm 17:52 Mostly Cloudy 70 21.1 52 11.1 53 53 NNW 7 11 29.99 1016 10 16.0934 0 0
6:52 pm 18:52 Mostly Cloudy 68 20 52 11.1 57 57 NNW 10 17 30.01 1016 10 16.0934 0 0
7:52 pm 19:52 Mostly Cloudy 67 19.4 53 11.7 61 61 NNW 6 9 30.02 1017 10 16.0934 0 0
8:52 pm 20:52 Mostly Cloudy 66 18.9 53 11.7 63 63 NNW 6 9 30.04 1017 10 16.0934 0 0
9:52 pm 21:52 Partly Cloudy 64 17.8 53 11.7 68 68 NNW 7 11 30.05 1018 10 16.0934 0 0
10:52 pm 22:52 Partly Cloudy 62 16.7 49 9.4 62 62 NNW 10 17 30.05 1018 10 16.0934 0 0
11:52 pm 23:52 Mostly Cloudy 61 16.1 45 7.2 56 56 NNW 10 17 30.06 1018 10 16.0934 0 0

Powered by AerisWeather